Home   Weather   Bremerhaven   Past weeks
Flag for Germany

Past Weather in Bremerhaven, Bremen, Germany — Yesterday and Last 2 Weeks

Now
52 °F

Passing clouds.


Feels Like: 47 °F
Forecast: 60 / 46 °F
Wind: 13 mph from Northwest

Location: Nordholz

Current Time: May 24, 2019 at 11:06:47 pm

Latest Report: May 24, 2019 at 10:20 pm


Visibility: N/A

Pressure: 29.95 "Hg

Humidity: 82%

Dew Point: 46 °F

Location of BremerhavenLocation

Past Weather in Bremerhaven — Graph

°F

Bremerhaven Temperature Yesterday

Maximum temperature yesterday: 70 °F (at 4:20 pm)
Minimum temperature yesterday: 45 °F (at 3:20 am)
Average temperature yesterday: 57 °F

High & Low Weather Summary for the Past Weeks

 TemperatureHumidityPressure
High73 °F (May 19, 4:20 pm)100% (May 17, 7:20 am)30.69 "Hg (May 17, 7:20 am)
Low36 °F (May 11, 4:20 am)35% (May 15, 9:20 am)29.53 "Hg (May 9, 9:20 pm)
Average53 °F74%30.02 "Hg
* Reported May 9 9:20 pm — May 24 9:20 pm, Bremerhaven. Weather by CustomWeather, © 2019

Note: Actual official high and low records may vary slightly from our data, if they occured in-between our weather recording intervals... More about our weather records

Advertising

Bremerhaven Weather History for the Previous 24 Hours

Scroll right to see more
 ConditionsComfort  
Time TempWeatherWind HumidityBarometerVisibility
9:20 pm
Fri, May 24
54 °FBroken clouds.16 mph77%29.95 "HgN/A
8:20 pm54 °FBroken clouds.14 mph77%29.95 "HgN/A
7:20 pm55 °FBroken clouds.17 mph72%29.92 "HgN/A
6:20 pm57 °FBroken clouds.18 mph67%29.92 "HgN/A
5:20 pm57 °FScattered clouds.20 mph72%29.92 "HgN/A
4:50 pm59 °FScattered clouds.20 mph68%29.92 "HgN/A
4:20 pm61 °FPassing clouds.21 mph59%29.92 "HgN/A
3:20 pm61 °FScattered clouds.20 mph59%29.92 "HgN/A
2:20 pm64 °FScattered clouds.20 mph56%29.89 "HgN/A
1:20 pm64 °FPartly sunny.18 mph60%29.89 "HgN/A
12:20 pm66 °FPartly sunny.15 mph49%29.89 "HgN/A
11:20 am66 °FPartly sunny.15 mph49%29.89 "HgN/A
10:20 am64 °FPartly sunny.12 mph52%29.92 "HgN/A
9:20 am61 °FBroken clouds.12 mph59%29.92 "HgN/A
8:20 am59 °FPartly sunny.9 mph63%29.92 "HgN/A
7:20 am54 °FPartly sunny.7 mph77%29.92 "HgN/A
6:20 am50 °FPartly sunny.6 mph82%29.92 "HgN/A
5:20 am50 °FFog.6 mph88%29.92 "HgN/A
4:20 am48 °FFog.7 mph94%29.95 "HgN/A
3:20 am46 °FFog.6 mph93%29.95 "HgN/A
2:20 am48 °FPassing clouds.5 mph94%29.95 "HgN/A
1:20 am48 °FPassing clouds.2 mph87%29.98 "HgN/A
12:20 am50 °FPassing clouds.1 mph82%29.98 "HgN/A
11:20 pm
Thu, May 23
52 °FPartly cloudy.No wind77%29.98 "HgN/A
Weather by CustomWeather, © 2019

See weather overview